Bullhead City, AZ

4:17 AM MST on July 25, 2016 (GMT -0700)
Laughlin-Bullhead International

Weather History for KIFP - August, 2013

Change the Weather History Date:

Thursday, August 8, 2013

  Actual Average Record
Temperature  
Mean Temperature 90 °F -  
Max Temperature 104 °F 106 °F 118 °F (1997)
Min Temperature 77 °F 85 °F 67 °F (1988)
Cooling Degree Days 26    
Growing Degree Days 40 (Base 50)    
Moisture  
Dew Point 28 °F    
Average Humidity 11    
Maximum Humidity 18    
Minimum Humidity 6    
Precipitation  
Precipitation 0.00 in - - ()
Sea Level Pressure  
Sea Level Pressure 29.79 in    
Wind  
Wind Speed 7 mph (South)    
Max Wind Speed 17 mph    
Max Gust Speed 23 mph    
Visibility 10 miles    
Events      
Averages and records for this station are not official NWS values.
T = Trace of Precipitation, MM = Missing Value Source: NWS Daily Summary

Daily Weather History Graph

Daily Weather History Graph

Search for Another Location

Airport or City:

Trip Planner

Search our weather history database for the weather conditions in past years. The results will help you decide how hot, cold, wet, or windy it might be!

Date:

Astronomy

Aug. 08, 2013 Rise Set
Actual Time 5:52 AM MST 7:34 PM MST
Civil Twilight 5:25 AM MST 8:01 PM MST
Nautical Twilight 4:52 AM MST 8:34 PM MST
Astronomical Twilight 4:17 AM MST 9:09 PM MST
Moon 7:37 AM MST (8/8) 8:22 PM MST (8/8)
Length of Visible Light 14h 35m
Length of Day
13h 41m
Waxing Crescent, 3% of the Moon is Illuminated
Aug 8
Waxing Crescent
Aug 14
First Quarter
Aug 20
Full
Aug 28
Last Quarter
Sep 5
New

Hourly Weather History & Observations

Time (MST) Temp. Dew Point Humidity Pressure Visibility Wind Dir Wind Speed Gust Speed Precip Events Conditions
12:15 AM 89.6 °F 23.0 °F 9% 29.82 in 10.0 mi ESE 8.1 mph - N/A   Clear
12:35 AM 87.8 °F 24.8 °F 10% 29.82 in 10.0 mi ESE 9.2 mph - N/A   Clear
12:55 AM 86.0 °F 24.8 °F 11% 29.82 in 10.0 mi SSE 9.2 mph - N/A   Clear
1:15 AM 86.0 °F 24.8 °F 11% 29.82 in 10.0 mi SE 8.1 mph - N/A   Clear
1:35 AM 86.0 °F 24.8 °F 11% 29.82 in 10.0 mi SSE 4.6 mph - N/A   Clear
1:55 AM 86.0 °F 24.8 °F 11% 29.81 in 10.0 mi SSE 8.1 mph - N/A   Clear
2:15 AM 86.0 °F 26.6 °F 12% 29.81 in 10.0 mi SSE 6.9 mph - N/A   Clear
2:35 AM 84.2 °F 26.6 °F 12% 29.81 in 10.0 mi ESE 5.8 mph - N/A   Clear
2:55 AM 84.2 °F 26.6 °F 12% 29.81 in 10.0 mi ESE 5.8 mph - N/A   Clear
3:15 AM 84.2 °F 26.6 °F 12% 29.81 in 10.0 mi ESE 6.9 mph - N/A   Clear
3:35 AM 82.4 °F 26.6 °F 13% 29.81 in 10.0 mi SE 8.1 mph - N/A   Clear
3:55 AM 84.2 °F 28.4 °F 13% 29.81 in 10.0 mi South 6.9 mph - N/A   Clear
4:15 AM 82.4 °F 28.4 °F 14% 29.81 in 10.0 mi SE 6.9 mph - N/A   Clear
4:35 AM 82.4 °F 30.2 °F 15% 29.81 in 10.0 mi SE 8.1 mph - N/A   Clear
4:55 AM 82.4 °F 32.0 °F 16% 29.82 in 10.0 mi SSE 6.9 mph - N/A   Clear
5:15 AM 80.6 °F 32.0 °F 17% 29.82 in 10.0 mi SSE 8.1 mph - N/A   Clear
5:35 AM 80.6 °F 32.0 °F 17% 29.83 in 10.0 mi South 5.8 mph - N/A   Clear
5:55 AM 78.8 °F 32.0 °F 18% 29.84 in 10.0 mi SSE 4.6 mph - N/A   Clear
6:15 AM 77.0 °F 30.2 °F 18% 29.84 in 10.0 mi Calm Calm - N/A   Clear
6:35 AM 78.8 °F 30.2 °F 17% 29.85 in 10.0 mi Calm Calm - N/A   Clear
6:55 AM 77.0 °F 30.2 °F 18% 29.85 in 10.0 mi Calm Calm - N/A   Clear
7:15 AM 78.8 °F 32.0 °F 18% 29.86 in 10.0 mi Calm Calm - N/A   Clear
7:35 AM 80.6 °F 30.2 °F 16% 29.86 in 10.0 mi Calm Calm - N/A   Clear
7:55 AM 82.4 °F 30.2 °F 15% 29.86 in 10.0 mi Calm Calm - N/A   Clear
8:15 AM 82.4 °F 30.2 °F 15% 29.87 in 10.0 mi Calm Calm - N/A   Clear
8:35 AM 84.2 °F 30.2 °F 14% 29.87 in 10.0 mi Calm Calm - N/A   Clear
8:55 AM 86.0 °F 30.2 °F 13% 29.87 in 10.0 mi Calm Calm - N/A   Clear
9:15 AM 86.0 °F 32.0 °F 14% 29.87 in 10.0 mi SW 3.5 mph - N/A   Clear
9:35 AM 87.8 °F 32.0 °F 14% 29.87 in 10.0 mi Calm Calm - N/A   Clear
9:55 AM 89.6 °F 35.6 °F 15% 29.87 in 10.0 mi SW 6.9 mph - N/A   Clear
10:15 AM 91.4 °F 33.8 °F 13% 29.86 in 10.0 mi SW 5.8 mph - N/A   Clear
10:35 AM 93.2 °F 32.0 °F 11% 29.86 in 10.0 mi SW 8.1 mph - N/A   Clear
10:55 AM 95.0 °F 32.0 °F 11% 29.86 in 10.0 mi SW 8.1 mph - N/A   Clear
11:15 AM 96.8 °F 28.4 °F 9% 29.85 in 10.0 mi South 8.1 mph - N/A   Clear
11:35 AM 98.6 °F 28.4 °F 8% 29.85 in 10.0 mi South 10.4 mph - N/A   Clear
11:55 AM 98.6 °F 28.4 °F 8% 29.84 in 10.0 mi South 11.5 mph 16.1 mph N/A   Clear
12:15 PM 100.4 °F 28.4 °F 8% 29.83 in 10.0 mi SSE 11.5 mph - N/A   Clear
12:35 PM 100.4 °F 28.4 °F 8% 29.83 in 10.0 mi SW 5.8 mph - N/A   Clear
12:55 PM 100.4 °F 26.6 °F 7% 29.82 in 10.0 mi South 8.1 mph 16.1 mph N/A   Clear
1:15 PM 102.2 °F 28.4 °F 7% 29.81 in 10.0 mi SSW 10.4 mph - N/A   Clear
1:35 PM 102.2 °F 28.4 °F 7% 29.81 in 10.0 mi South 8.1 mph 18.4 mph N/A   Clear
1:55 PM 102.2 °F 26.6 °F 7% 29.80 in 10.0 mi South 12.7 mph 19.6 mph N/A   Clear
2:15 PM 104.0 °F 26.6 °F 7% 29.79 in 10.0 mi South 8.1 mph 16.1 mph N/A   Clear
2:35 PM 104.0 °F 26.6 °F 7% 29.78 in 10.0 mi South 11.5 mph 18.4 mph N/A   Clear
2:55 PM 104.0 °F 26.6 °F 7% 29.77 in 10.0 mi South 13.8 mph 18.4 mph N/A   Clear
3:15 PM 104.0 °F 24.8 °F 6% 29.76 in 10.0 mi South 11.5 mph - N/A   Clear
3:35 PM 104.0 °F 26.6 °F 7% 29.75 in 10.0 mi South 16.1 mph - N/A   Clear
3:55 PM 104.0 °F 26.6 °F 7% 29.74 in 10.0 mi South 10.4 mph 17.3 mph N/A   Clear
4:15 PM 104.0 °F 24.8 °F 6% 29.74 in 10.0 mi South 9.2 mph 18.4 mph N/A   Clear
4:35 PM 104.0 °F 26.6 °F 7% 29.73 in 10.0 mi SSW 10.4 mph - N/A   Clear
4:55 PM 104.0 °F 24.8 °F 6% 29.73 in 10.0 mi SW 10.4 mph 16.1 mph N/A   Clear
5:15 PM 104.0 °F 26.6 °F 7% 29.72 in 10.0 mi SE 15.0 mph 20.7 mph N/A   Clear
5:35 PM 104.0 °F 26.6 °F 7% 29.71 in 10.0 mi South 17.3 mph 23.0 mph N/A   Clear
5:55 PM 104.0 °F 26.6 °F 7% 29.71 in 10.0 mi SSW 11.5 mph 18.4 mph N/A   Clear
6:15 PM 104.0 °F 26.6 °F 7% 29.71 in 10.0 mi SW 11.5 mph - N/A   Clear
6:35 PM 104.0 °F 26.6 °F 7% 29.71 in 10.0 mi SW 11.5 mph - N/A   Clear
6:55 PM 102.2 °F 26.6 °F 7% 29.71 in 10.0 mi SW 6.9 mph - N/A   Clear
7:15 PM 102.2 °F 26.6 °F 7% 29.71 in 10.0 mi SSW 9.2 mph 17.3 mph N/A   Clear
7:35 PM 100.4 °F 28.4 °F 8% 29.71 in 10.0 mi SW 8.1 mph - N/A   Clear
7:55 PM 98.6 °F 28.4 °F 8% 29.71 in 10.0 mi WSW 4.6 mph - N/A   Clear
8:15 PM 98.6 °F 28.4 °F 8% 29.72 in 10.0 mi Calm Calm - N/A   Clear
8:35 PM 98.6 °F 28.4 °F 8% 29.72 in 10.0 mi SSW 5.8 mph - N/A   Clear
8:55 PM 95.0 °F 28.4 °F 9% 29.72 in 10.0 mi Calm Calm - N/A   Clear
9:15 PM 95.0 °F 28.4 °F 9% 29.73 in 10.0 mi ESE 5.8 mph - N/A   Clear
9:35 PM 93.2 °F 28.4 °F 10% 29.73 in 10.0 mi ESE 5.8 mph - N/A   Clear
9:55 PM 93.2 °F 28.4 °F 10% 29.73 in 10.0 mi SE 6.9 mph - N/A   Clear
10:15 PM 91.4 °F 32.0 °F 12% 29.74 in 10.0 mi South 4.6 mph - N/A   Clear
10:35 PM 93.2 °F 26.6 °F 9% 29.75 in 10.0 mi South 6.9 mph - N/A   Clear
10:55 PM 93.2 °F 26.6 °F 9% 29.75 in 10.0 mi South 10.4 mph - N/A   Clear
11:15 PM 93.2 °F 26.6 °F 9% 29.76 in 10.0 mi SE 8.1 mph - N/A   Clear
11:35 PM 91.4 °F 26.6 °F 10% 29.76 in 10.0 mi SE 9.2 mph - N/A   Clear
11:55 PM 91.4 °F 28.4 °F 10% 29.76 in 10.0 mi SE 10.4 mph - N/A   Clear